This is the latest recevied weather packets stored in our database for station/object WX4SGA. If no packets are shown the sender has not sent any weather packets the latest 10 day(s).
| Time | Temp. | Humidity | Pressure | Rain* | Wind** | Luminosity | Snow |
|---|---|---|---|---|---|---|---|
| 1788396051 | 27.22° C | 83% | 1016.6 hPa | 0 mm | - | 0 W/m² | - |
| 1788395746 | 27.22° C | 83% | 1016.6 hPa | 0 mm | - | 0 W/m² | - |
| 1788395442 | 27.78° C | 82% | 1016.6 hPa | 0 mm | - | 0 W/m² | - |
| 1788395137 | 27.78° C | 81% | 1016.6 hPa | 0 mm | - | 0 W/m² | - |
| 1788394831 | 27.78° C | 78% | 1016.6 hPa | 0 mm | - | 0 W/m² | - |
| 1788394525 | 27.78° C | 76% | 1016.6 hPa | 0 mm | - | 0 W/m² | - |
| 1788394219 | 28.33° C | 77% | 1016.3 hPa | 0 mm | - | 0 W/m² | - |
| 1788393915 | 28.89° C | 74% | 1016.3 hPa | 0 mm | - | 1 W/m² | - |
| 1788393614 | 27.78° C | 80% | 1016.3 hPa | 0 mm | - | 2 W/m² | - |
| 1788393307 | 28.33° C | 78% | 1016.3 hPa | 0 mm | - | 5 W/m² | - |
| 1788393003 | 28.33° C | 77% | 1016.3 hPa | 0 mm | - | 7 W/m² | - |
| 1788392697 | 28.33° C | 78% | 1016.3 hPa | 0 mm | - | 10 W/m² | - |
| 1788392396 | 28.33° C | 76% | 1016.3 hPa | 0 mm | - | 12 W/m² | - |
| 1788392095 | 28.89° C | 79% | 1016.3 hPa | 0 mm | - | 14 W/m² | - |
| 1788391790 | 28.89° C | 79% | 1016.3 hPa | 0 mm | - | 18 W/m² | - |
| 1788391484 | 29.44° C | 77% | 1016.3 hPa | 0 mm | - | 20 W/m² | - |
| 1788391183 | 30° C | 76% | 1016.3 hPa | 0 mm | - | 21 W/m² | - |
| 1788390873 | 30.56° C | 73% | 1016.3 hPa | 0 mm | - | 23 W/m² | - |
| 1788390568 | 31.11° C | 65% | 1016.3 hPa | 0 mm | - | 24 W/m² | - |
| 1788390262 | 31.11° C | 63% | 1015.9 hPa | 0 mm | - | 26 W/m² | - |
| 1788389962 | 31.67° C | 66% | 1016.3 hPa | 0 mm | - | 28 W/m² | - |
| 1788389657 | 31.67° C | 61% | 1016.3 hPa | 0 mm | - | 30 W/m² | - |
| 1788389355 | 32.22° C | 59% | 1016.3 hPa | 0 mm | - | 37 W/m² | - |
| 1788389055 | 32.22° C | 59% | 1016.3 hPa | 0 mm | - | 55 W/m² | - |
| 1788388753 | 32.22° C | 57% | 1016.3 hPa | 0 mm | - | 52 W/m² | - |
* Rain latest hour (hover to see other rain measurements)
** Current wind speed in m/s (hover to see current wind gust speed)